period_start,C,m1,H,J0,J1,J2,J3,J4,J5,JA,JB,JC,JD,JJ,JK,JN,#
2014-12-10 00:00:45,0.15,1.64,0.00,21.85,26.80,30.04,4.94,26.65,1031.74,2032.02,2855.08,2847.79,3087.46,350.19,354.52,10.84,0000 0000 0000 0000 000000
2014-12-10 00:05:46,0.15,1.65,0.00,21.88,26.80,30.04,4.87,26.61,1031.74,2032.02,2853.52,2846.61,3086.22,349.99,354.27,10.87,0000 0000 0000 0000 000000
2014-12-10 00:10:47,0.16,1.65,0.00,21.85,26.80,30.01,4.85,26.67,1031.74,2032.01,2851.81,2845.35,3084.82,349.52,353.95,10.90,0000 0000 0000 0000 000000
2014-12-10 00:15:48,0.14,1.65,0.00,21.83,26.80,30.01,4.89,26.60,1031.70,2032.02,2850.31,2844.18,3083.63,349.82,354.10,10.93,0000 0000 0000 0000 000000
2014-12-10 00:20:50,0.14,1.66,0.00,21.86,26.80,30.01,4.96,26.68,1031.71,2032.02,2848.94,2843.02,3082.16,350.14,354.37,10.96,0000 0000 0000 0000 000000
2014-12-10 00:25:51,0.16,1.66,0.00,21.87,26.80,30.00,4.86,26.82,1031.54,2032.02,2847.40,2841.84,3080.84,349.85,353.96,10.99,0000 0000 0000 0000 000000
2014-12-10 00:30:52,0.18,1.67,0.00,21.91,26.80,29.99,4.92,26.67,1031.35,2032.00,2845.63,2840.64,3079.54,350.21,354.22,11.02,0000 0000 0000 0000 000000
2014-12-10 00:35:53,0.15,1.67,0.00,21.87,26.79,30.01,4.89,26.62,1031.29,2032.00,2843.89,2839.37,3078.22,350.04,354.11,11.05,0000 0000 0000 0000 000000
2014-12-10 00:40:55,0.14,1.68,0.00,21.85,26.78,30.00,4.90,26.70,1031.29,2032.00,2842.32,2838.18,3076.90,350.15,354.26,11.08,0000 0000 0000 0000 000000
2014-12-10 00:45:56,0.15,1.68,0.00,21.83,26.77,30.02,4.89,26.54,1031.29,2032.01,2840.86,2837.13,3075.65,349.86,354.21,11.10,0000 0000 0000 0000 000000
2014-12-10 00:50:57,0.15,1.69,0.00,21.80,26.77,30.00,4.95,26.46,1031.28,2032.00,2839.33,2835.95,3074.48,350.22,354.26,11.13,0000 0000 0000 0000 000000
2014-12-10 00:55:58,0.16,1.69,0.00,21.81,26.77,29.97,4.92,26.48,1031.29,2032.01,2837.66,2834.79,3073.25,349.69,353.70,11.16,0000 0000 0000 0000 000000
2014-12-10 01:00:59,0.14,1.70,0.00,21.79,26.77,29.96,4.84,26.54,1031.29,2032.03,2836.12,2833.70,3072.08,349.41,353.55,11.19,0000 0000 0000 0000 000000
2014-12-10 01:06:01,0.15,1.70,0.00,21.79,26.76,29.98,4.99,26.62,1031.27,2032.02,2834.62,2832.60,3070.95,349.73,353.73,11.22,0000 0000 0000 0000 000000
2014-12-10 01:11:02,0.15,1.70,0.00,21.80,26.75,29.97,4.84,26.42,1031.27,2032.05,2833.13,2831.45,3069.78,349.88,353.80,11.25,0000 0000 0000 0000 000000
2014-12-10 01:16:03,0.15,1.71,0.00,21.76,26.75,29.97,4.92,26.42,1031.27,2032.04,2831.53,2830.29,3068.46,349.73,353.92,11.28,0000 0000 0000 0000 000000
2014-12-10 01:21:04,0.14,1.71,0.00,21.80,26.75,29.96,4.92,26.49,1031.27,2032.06,2829.84,2829.19,3067.32,349.96,354.26,11.31,0000 0000 0000 0000 000000
2014-12-10 01:26:06,0.14,1.72,0.00,21.74,26.74,29.93,4.87,26.48,1031.23,2032.05,2828.26,2827.99,3066.08,349.83,354.05,11.34,0000 0000 0000 0000 000000
2014-12-10 01:31:07,0.17,1.72,0.00,21.73,26.73,29.95,4.87,26.40,1031.18,2032.08,2826.71,2826.80,3064.74,349.81,354.04,11.37,0000 0000 0000 0000 000000
2014-12-10 01:36:09,0.15,1.73,0.00,21.74,26.72,29.96,4.99,26.51,1030.96,2032.09,2825.13,2825.68,3063.62,350.60,354.82,11.40,0000 0000 0000 0000 000000
2014-12-10 01:41:10,0.16,1.73,0.00,21.75,26.72,29.94,4.87,26.54,1031.12,2032.10,2823.37,2824.45,3062.35,349.89,353.99,11.43,0000 0000 0000 0000 000000
2014-12-10 01:46:11,0.15,1.74,0.00,21.72,26.71,29.95,4.84,26.60,1031.16,2032.18,2821.94,2823.40,3061.09,349.85,354.16,11.46,0000 0000 0000 0000 000000
2014-12-10 01:51:13,0.16,1.74,0.00,21.72,26.70,29.94,4.88,26.49,1031.09,2032.23,2820.54,2822.24,3059.79,349.91,354.08,11.49,0000 0000 0000 0000 000000
2014-12-10 01:56:14,0.11,1.75,0.00,21.75,26.70,29.92,4.82,26.52,1031.19,2032.17,2819.00,2821.11,3058.52,349.74,354.02,11.51,0000 0000 0000 0000 000000
2014-12-10 02:01:15,0.15,1.75,0.00,21.82,26.70,29.89,4.90,26.81,1031.13,2032.13,2817.41,2819.91,3057.36,350.20,354.23,11.54,0000 0000 0000 0000 000000
2014-12-10 02:06:17,0.15,1.76,0.00,21.78,26.68,29.90,4.83,26.69,1030.91,2032.18,2815.91,2818.82,3056.24,350.32,354.45,11.57,0000 0000 0000 0000 000000
2014-12-10 02:11:18,0.16,1.76,0.00,21.75,26.67,29.88,4.97,26.78,1030.87,2032.18,2814.49,2817.73,3055.00,350.19,354.36,11.60,0000 0000 0000 0000 000000
2014-12-10 02:16:19,0.14,1.76,0.00,21.77,26.67,29.89,4.96,26.73,1030.81,2032.26,2813.02,2816.66,3053.80,350.39,354.34,11.63,0000 0000 0000 0000 000000
2014-12-10 02:21:21,0.21,1.77,0.00,21.75,26.67,29.88,4.99,26.89,1030.79,2032.54,2811.54,2815.66,3052.67,350.01,354.13,11.66,0000 0000 0000 0000 000000
2014-12-10 02:26:22,0.11,1.77,0.00,21.70,26.67,29.88,4.85,26.68,1030.78,2032.38,2809.91,2814.52,3051.46,349.99,354.14,11.69,0000 0000 0000 0000 000000
2014-12-10 02:31:24,0.17,1.78,0.00,21.71,26.66,29.90,4.85,26.67,1030.78,2032.50,2808.50,2813.46,3050.25,349.77,354.01,11.72,0000 0000 0000 0000 000000
2014-12-10 02:36:25,0.16,1.78,0.00,21.71,26.65,29.86,4.90,26.50,1030.78,2032.59,2807.00,2812.34,3049.03,349.58,353.64,11.75,0000 0000 0000 0000 000000
2014-12-10 02:41:26,0.17,1.79,0.00,21.71,26.65,29.86,4.89,26.59,1030.78,2032.76,2805.44,2811.27,3047.81,349.55,353.72,11.78,0000 0000 0000 0000 000000
2014-12-10 02:46:27,0.15,1.79,0.00,21.71,26.65,29.86,4.90,26.47,1030.78,2032.89,2804.15,2810.19,3046.67,349.82,353.86,11.81,0000 0000 0000 0000 000000
2014-12-10 02:51:28,0.13,1.80,0.00,21.75,26.65,29.85,4.92,26.57,1030.78,2032.79,2802.55,2809.11,3045.54,350.14,354.07,11.84,0000 0000 0000 0000 000000
2014-12-10 02:56:30,0.14,1.80,0.00,21.72,26.65,29.86,4.96,26.68,1030.78,2032.84,2801.01,2808.05,3044.39,350.18,354.26,11.87,0000 0000 0000 0000 000000
2014-12-10 03:01:31,0.16,1.81,0.00,21.70,26.63,29.87,4.85,26.63,1030.78,2032.95,2799.63,2806.95,3043.26,350.15,354.18,11.90,0000 0000 0000 0000 000000
2014-12-10 03:06:32,0.14,1.81,0.00,21.74,26.62,29.88,4.92,26.76,1030.78,2032.94,2798.06,2805.83,3042.10,350.57,354.71,11.92,0000 0000 0000 0000 000000
2014-12-10 03:11:33,0.18,1.82,0.00,21.69,26.62,29.86,5.00,26.82,1030.78,2032.96,2796.53,2804.69,3040.88,350.12,354.22,11.95,0000 0000 0000 0000 000000
2014-12-10 03:16:35,0.13,1.82,0.00,21.69,26.62,29.83,4.91,26.82,1030.78,2032.94,2794.99,2803.61,3039.79,350.31,354.43,11.98,0000 0000 0000 0000 000000
2014-12-10 03:21:37,0.16,1.82,0.00,21.69,26.62,29.85,4.90,26.76,1030.78,2032.96,2793.55,2802.50,3038.48,350.00,354.26,12.01,0000 0000 0000 0000 000000
2014-12-10 03:26:38,0.14,1.83,0.00,21.71,26.61,29.83,5.00,26.75,1030.78,2032.95,2791.99,2801.35,3037.27,350.40,354.48,12.04,0000 0000 0000 0000 000000
2014-12-10 03:31:40,0.14,1.83,0.00,21.65,26.60,29.85,4.95,26.81,1030.78,2032.96,2790.59,2800.38,3036.19,350.25,354.47,12.07,0000 0000 0000 0000 000000
2014-12-10 03:36:41,0.14,1.84,0.00,21.68,26.60,29.85,4.85,26.77,1030.78,2032.96,2789.11,2799.31,3034.97,350.26,354.44,12.10,0000 0000 0000 0000 000000
2014-12-10 03:41:42,0.16,1.84,0.00,21.65,26.60,29.82,4.88,26.57,1030.77,2032.97,2787.58,2798.16,3033.73,349.91,353.86,12.13,0000 0000 0000 0000 000000
2014-12-10 03:46:44,0.12,1.85,0.00,21.65,26.60,29.82,4.97,26.64,1030.73,2032.99,2786.28,2797.11,3032.67,349.75,353.82,12.16,0000 0000 0000 0000 000000
2014-12-10 03:51:45,0.15,1.85,0.00,21.68,26.60,29.79,4.95,26.56,1030.60,2032.98,2784.82,2796.08,3031.53,350.67,354.78,12.19,0000 0000 0000 0000 000000
2014-12-10 03:56:46,0.13,1.85,0.00,21.69,26.59,29.81,4.93,26.68,1030.46,2032.98,2783.42,2795.01,3030.37,349.99,353.96,12.22,0000 0000 0000 0000 000000
2014-12-10 04:01:47,0.13,1.86,0.00,21.68,26.58,29.79,4.89,26.60,1030.34,2032.99,2781.91,2793.99,3029.31,350.02,354.00,12.25,0000 0000 0000 0000 000000
2014-12-10 04:06:49,0.14,1.86,0.00,21.65,26.57,29.80,4.97,26.77,1030.31,2032.99,2780.57,2792.95,3028.23,350.44,354.46,12.28,0000 0000 0000 0000 000000
2014-12-10 04:11:50,0.12,1.87,0.00,21.64,26.57,29.78,4.92,26.84,1030.34,2032.99,2779.24,2791.92,3027.03,350.19,354.16,12.31,0000 0000 0000 0000 000000
2014-12-10 04:16:51,0.15,1.87,0.00,21.67,26.57,29.78,4.90,26.65,1030.33,2032.99,2777.78,2790.85,3025.85,350.10,353.86,12.33,0000 0000 0000 0000 000000
2014-12-10 04:21:52,0.14,1.87,0.00,21.67,26.57,29.80,4.85,26.63,1030.33,2032.99,2776.52,2789.80,3024.72,350.19,354.13,12.36,0000 0000 0000 0000 000000
2014-12-10 04:26:53,0.15,1.88,0.00,21.64,26.57,29.79,4.87,26.77,1030.33,2032.99,2774.97,2788.72,3023.63,349.74,353.82,12.39,0000 0000 0000 0000 000000
2014-12-10 04:31:55,0.15,1.88,0.00,21.61,26.56,29.75,4.83,26.76,1030.33,2032.99,2773.52,2787.64,3022.43,349.81,354.01,12.42,0000 0000 0000 0000 000000
2014-12-10 04:36:56,0.13,1.89,0.00,21.60,26.55,29.77,4.87,26.71,1030.31,2032.99,2772.05,2786.63,3021.26,350.30,354.26,12.45,0000 0000 0000 0000 000000
2014-12-10 04:41:57,0.15,1.89,0.00,21.60,26.55,29.77,4.85,26.88,1030.40,2032.99,2770.65,2785.46,3020.11,349.64,353.87,12.48,0000 0000 0000 0000 000000
2014-12-10 04:46:58,0.13,1.90,0.00,21.62,26.55,29.76,4.84,26.68,1030.36,2032.99,2769.38,2784.53,3019.00,349.42,353.58,12.51,0000 0000 0000 0000 000000
2014-12-10 04:52:00,0.14,1.90,0.00,21.64,26.55,29.75,4.88,26.75,1030.33,2032.99,2767.99,2783.52,3017.80,349.72,353.81,12.54,0000 0000 0000 0000 000000
2014-12-10 04:57:01,0.15,1.90,0.00,21.59,26.54,29.77,4.88,26.70,1030.32,2032.99,2766.59,2782.38,3016.59,350.04,353.91,12.57,0000 0000 0000 0000 000000
2014-12-10 05:02:03,0.13,1.91,0.00,21.59,26.52,29.77,4.96,26.96,1030.32,2032.99,2765.09,2781.33,3015.57,349.78,353.88,12.60,0000 0000 0000 0000 000000
2014-12-10 05:07:04,0.14,1.91,0.00,21.56,26.52,29.73,4.90,26.81,1030.32,2032.99,2763.68,2780.26,3014.46,350.16,354.28,12.63,0000 0000 0000 0000 000000
2014-12-10 05:12:06,0.13,1.92,0.00,21.60,26.52,29.74,4.83,26.79,1030.30,2032.99,2762.36,2779.21,3013.21,350.14,354.03,12.66,0000 0000 0000 0000 000000
2014-12-10 05:17:07,0.14,1.92,0.00,21.65,26.52,29.74,4.82,26.69,1030.29,2032.99,2760.88,2778.16,3012.11,349.32,353.26,12.69,0000 0000 0000 0000 000000
2014-12-10 05:22:08,0.14,1.93,0.00,21.64,26.52,29.74,4.98,26.79,1030.29,2032.99,2759.50,2777.11,3010.95,350.46,354.40,12.72,0000 0000 0000 0000 000000
2014-12-10 05:27:09,0.12,1.93,0.00,21.63,26.50,29.75,4.94,26.64,1030.29,2032.99,2758.19,2776.13,3009.90,350.06,354.09,12.74,0000 0000 0000 0000 000000
2014-12-10 05:32:11,0.15,1.93,0.00,21.65,26.50,29.72,4.88,26.68,1030.29,2033.00,2756.78,2775.16,3008.72,349.96,353.91,12.77,0000 0000 0000 0000 000000
2014-12-10 05:37:12,0.15,1.94,0.00,21.65,26.50,29.73,4.87,26.66,1030.29,2033.00,2755.28,2773.99,3007.65,349.58,353.56,12.80,0000 0000 0000 0000 000000
2014-12-10 05:42:14,0.12,1.94,0.00,21.65,26.50,29.73,5.00,26.70,1030.29,2033.00,2753.88,2772.96,3006.60,350.46,354.30,12.83,0000 0000 0000 0000 000000
2014-12-10 05:47:15,0.15,1.95,0.00,21.65,26.50,29.72,4.83,26.41,1030.29,2033.00,2752.69,2771.95,3005.50,350.01,353.91,12.86,0000 0000 0000 0000 000000
2014-12-10 05:52:16,0.15,1.95,0.00,21.62,26.50,29.70,4.90,26.48,1030.24,2033.00,2751.34,2770.80,3004.28,350.13,354.17,12.89,0000 0000 0000 0000 000000
2014-12-10 05:57:17,0.14,1.96,0.00,21.63,26.50,29.73,4.98,26.53,1030.23,2033.00,2749.86,2769.73,3003.17,350.14,354.16,12.92,0000 0000 0000 0000 000000
2014-12-10 06:02:19,0.14,1.96,0.00,21.62,26.49,29.73,4.96,26.77,1030.21,2033.00,2748.56,2768.71,3001.97,350.15,354.20,12.95,0000 0000 0000 0000 000000
2014-12-10 06:07:20,0.11,1.96,0.00,21.57,26.48,29.70,4.95,26.74,1030.26,2033.00,2747.26,2767.81,3000.93,350.23,354.32,12.98,0000 0000 0000 0000 000000
2014-12-10 06:12:21,0.15,1.97,0.00,21.61,26.47,29.72,4.93,26.63,1030.25,2033.00,2745.80,2766.76,2999.89,350.63,354.36,13.01,0000 0000 0000 0000 000000
2014-12-10 06:17:23,0.12,1.97,0.00,21.60,26.47,29.71,4.93,26.58,1030.27,2033.00,2744.52,2765.85,2998.85,349.93,353.97,13.04,0000 0000 0000 0000 000000
2014-12-10 06:22:25,0.15,1.98,0.00,21.59,26.47,29.70,5.02,26.63,1030.28,2033.00,2743.17,2764.80,2997.74,350.51,354.48,13.07,0000 0000 0000 0000 000000
2014-12-10 06:27:25,0.16,1.98,0.00,21.59,26.47,29.72,4.92,26.57,1030.29,2033.00,2741.68,2763.70,2996.61,350.28,354.10,13.10,0000 0000 0000 0000 000000
2014-12-10 06:32:27,0.12,1.98,0.00,21.54,26.47,29.70,4.85,26.39,1030.29,2033.00,2740.34,2762.74,2995.61,349.28,353.34,13.13,0000 0000 0000 0000 000000
2014-12-10 06:37:28,0.14,1.99,0.00,21.57,26.47,29.71,4.82,26.46,1030.29,2033.00,2738.90,2761.73,2994.54,349.94,354.10,13.15,0000 0000 0000 0000 000000
2014-12-10 06:42:30,0.15,1.99,0.00,21.59,26.45,29.69,4.90,26.48,1030.29,2033.01,2737.33,2760.63,2993.31,350.15,354.12,13.18,0000 0000 0000 0000 000000
2014-12-10 06:47:31,0.12,2.00,0.00,21.59,26.45,29.67,4.92,26.43,1030.29,2033.00,2736.09,2759.64,2992.33,349.65,353.72,13.21,0000 0000 0000 0000 000000
2014-12-10 06:52:32,0.15,2.00,0.00,21.58,26.45,29.67,4.97,26.53,1030.29,2033.00,2734.79,2758.58,2991.09,350.42,354.41,13.24,0000 0000 0000 0000 000000
2014-12-10 06:57:33,0.15,2.01,0.00,21.55,26.45,29.69,4.88,26.48,1030.29,2033.00,2733.38,2757.54,2989.89,350.15,354.35,13.27,0000 0000 0000 0000 000000
2014-12-10 07:02:35,0.14,2.01,0.00,21.57,26.45,29.69,4.92,26.52,1030.29,2033.01,2731.95,2756.52,2988.81,349.42,353.41,13.30,0000 0000 0000 0000 000000
2014-12-10 07:07:36,0.14,2.01,0.00,21.58,26.45,29.67,4.90,26.53,1030.28,2033.00,2730.68,2755.47,2987.68,350.46,354.62,13.33,0000 0000 0000 0000 000000
2014-12-10 07:12:37,0.13,2.02,0.00,21.56,26.45,29.68,4.88,26.58,1030.27,2033.02,2729.33,2754.53,2986.65,349.74,353.88,13.36,0000 0000 0000 0000 000000
2014-12-10 07:17:39,0.13,2.02,0.00,21.56,26.44,29.69,5.03,26.59,1030.17,2033.01,2727.94,2753.51,2985.58,350.19,354.33,13.39,0000 0000 0000 0000 000000
2014-12-10 07:22:40,0.15,2.03,0.00,21.53,26.43,29.70,4.91,26.44,1030.05,2033.01,2726.67,2752.50,2984.41,349.92,353.96,13.42,0000 0000 0000 0000 000000
2014-12-10 07:27:42,0.12,2.03,0.00,21.51,26.42,29.67,4.84,26.47,1030.09,2033.00,2725.44,2751.57,2983.31,350.22,354.16,13.45,0000 0000 0000 0000 000000
2014-12-10 07:32:43,0.12,2.03,0.00,21.50,26.42,29.68,4.89,26.48,1030.20,2033.01,2724.00,2750.68,2982.24,349.81,353.99,13.48,0000 0000 0000 0000 000000
2014-12-10 07:37:45,0.15,2.04,0.00,21.48,26.42,29.66,4.90,26.66,1030.27,2033.00,2722.51,2749.61,2981.10,350.11,354.35,13.51,0000 0000 0000 0000 000000
2014-12-10 07:42:45,0.13,2.04,0.00,21.52,26.42,29.65,4.94,26.63,1030.28,2033.02,2720.99,2748.65,2980.10,350.20,354.35,13.53,0000 0000 0000 0000 000000
2014-12-10 07:47:47,0.14,2.05,0.00,21.53,26.42,29.63,4.80,26.57,1030.27,2033.00,2719.67,2747.66,2979.12,350.05,354.45,13.56,0000 0000 0000 0000 000000
2014-12-10 07:52:48,0.15,2.05,0.00,21.49,26.40,29.63,4.93,26.68,1030.29,2033.01,2718.00,2746.52,2978.07,350.23,354.40,13.59,0000 0000 0000 0000 000000
2014-12-10 07:57:49,0.14,2.06,0.00,21.51,26.40,29.64,4.88,26.57,1030.28,2033.02,2716.65,2745.55,2976.97,350.24,354.03,13.62,0000 0000 0000 0000 000000
2014-12-10 08:02:50,0.15,2.06,0.00,21.51,26.40,29.63,4.86,26.56,1030.28,2033.09,2715.47,2744.59,2975.86,349.81,353.97,13.65,0000 0000 0000 0000 000000
2014-12-10 08:07:51,0.14,2.06,0.00,21.50,26.40,29.61,4.98,26.55,1030.27,2033.19,2714.18,2743.63,2974.73,350.05,353.99,13.68,0000 0000 0000 0000 000000
2014-12-10 08:12:53,0.13,2.07,0.00,21.52,26.40,29.63,4.92,26.43,1030.29,2033.22,2712.97,2742.64,2973.56,349.98,354.10,13.71,0000 0000 0000 0000 000000
2014-12-10 08:17:54,0.15,2.07,0.00,21.53,26.40,29.60,4.88,26.37,1030.29,2033.26,2711.69,2741.64,2972.48,349.81,353.96,13.74,0000 0000 0000 0000 000000
2014-12-10 08:22:56,0.13,2.08,0.00,21.52,26.39,29.59,4.80,26.47,1030.29,2033.10,2710.19,2740.53,2971.39,349.83,353.96,13.77,0000 0000 0000 0000 000000
2014-12-10 08:27:57,0.15,2.08,0.00,21.49,26.38,29.64,4.90,26.49,1030.29,2033.17,2708.77,2739.60,2970.40,349.93,354.52,13.80,0000 0000 0000 0000 000000
2014-12-10 08:32:58,0.13,2.08,0.00,21.44,26.37,29.62,4.87,26.35,1030.29,2033.20,2707.40,2738.63,2969.40,350.14,354.39,13.83,0000 0000 0000 0000 000000
2014-12-10 08:38:00,0.16,2.09,0.00,21.47,26.37,29.60,4.91,26.43,1030.28,2033.25,2705.89,2737.60,2968.31,349.84,354.18,13.86,0000 0000 0000 0000 000000
2014-12-10 08:43:01,0.12,2.09,0.00,21.49,26.37,29.60,4.92,26.43,1030.28,2033.15,2704.50,2736.47,2967.13,350.27,354.34,13.89,0000 0000 0000 0000 000000
2014-12-10 08:48:03,0.17,2.10,0.00,21.49,26.37,29.60,4.87,26.40,1030.29,2033.37,2703.23,2735.51,2966.02,349.76,353.98,13.92,0000 0000 0000 0000 000000
2014-12-10 08:53:04,0.18,2.10,0.00,21.46,26.37,29.63,4.91,26.43,1030.29,2033.54,2701.86,2734.51,2964.93,349.95,354.23,13.94,0000 0000 0000 0000 000000
2014-12-10 08:58:06,0.13,2.11,0.00,21.50,26.37,29.58,4.99,26.50,1030.29,2033.56,2700.38,2733.43,2963.76,349.86,353.88,13.97,0000 0000 0000 0000 000000
2014-12-10 09:03:07,0.12,2.11,0.00,21.46,26.37,29.58,4.80,26.56,1030.26,2033.40,2699.27,2732.39,2962.48,349.33,353.74,14.00,0000 0000 0000 0000 000000
2014-12-10 09:08:08,0.14,2.12,0.00,21.42,26.37,29.58,4.78,26.45,1030.24,2033.35,2697.86,2731.38,2961.29,349.36,353.71,14.03,0000 0000 0000 0000 000000
2014-12-10 09:13:10,0.14,2.12,0.00,21.44,26.37,29.60,4.86,26.48,1030.26,2033.32,2696.43,2730.36,2960.37,349.91,354.04,14.06,0000 0000 0000 0000 000000
2014-12-10 09:18:11,0.14,2.13,0.00,21.44,26.37,29.58,4.93,26.47,1030.24,2033.51,2695.18,2729.36,2959.33,350.52,354.66,14.09,0000 0000 0000 0000 000000
2014-12-10 09:23:11,0.12,2.13,0.00,21.45,26.36,29.59,4.85,26.42,1030.27,2033.33,2693.84,2728.39,2958.15,349.88,354.30,14.12,0000 0000 0000 0000 000000
2014-12-10 09:28:13,0.17,2.13,0.00,21.46,26.35,29.56,4.94,26.51,1030.28,2033.58,2692.56,2727.45,2957.19,349.91,354.12,14.15,0000 0000 0000 0000 000000
2014-12-10 09:33:14,0.11,2.14,0.00,21.44,26.35,29.57,4.87,26.42,1030.28,2033.39,2691.13,2726.41,2956.01,349.73,353.82,14.18,0000 0000 0000 0000 000000
2014-12-10 09:38:15,0.15,2.14,0.00,21.48,26.35,29.57,4.93,26.66,1030.27,2033.40,2689.64,2725.39,2954.91,350.01,354.39,14.21,0000 0000 0000 0000 000000
2014-12-10 09:43:16,0.17,2.15,0.00,21.43,26.35,29.57,4.88,26.47,1030.28,2033.51,2688.17,2724.26,2953.82,349.66,353.79,14.24,0000 0000 0000 0000 000000
2014-12-10 09:48:17,0.15,2.15,0.00,21.41,26.34,29.56,4.92,26.55,1030.27,2033.63,2686.79,2723.33,2952.69,350.00,354.13,14.27,0000 0000 0000 0000 000000
2014-12-10 09:53:19,0.15,2.16,0.00,21.40,26.33,29.57,4.85,26.48,1030.23,2033.66,2685.47,2722.27,2951.66,349.66,353.82,14.30,0000 0000 0000 0000 000000
2014-12-10 09:58:20,0.12,2.16,0.00,21.37,26.32,29.54,4.83,26.40,1030.23,2033.69,2684.15,2721.33,2950.60,349.77,354.00,14.33,0000 0000 0000 0000 000000
2014-12-10 10:03:21,0.17,2.16,0.00,21.42,26.32,29.56,4.91,26.45,1030.12,2033.74,2682.78,2720.36,2949.61,350.25,354.34,14.35,0000 0000 0000 0000 000000
2014-12-10 10:08:23,0.16,2.17,0.00,21.42,26.32,29.53,4.86,26.48,1029.97,2033.87,2681.54,2719.43,2948.60,350.19,354.25,14.38,0000 0000 0000 0000 000000
2014-12-10 10:13:24,0.13,2.17,0.00,21.44,26.32,29.54,4.96,26.58,1029.97,2033.88,2680.18,2718.38,2947.54,350.26,354.49,14.41,0000 0000 0000 0000 000000
2014-12-10 10:18:25,0.14,2.18,0.00,21.40,26.32,29.55,4.80,26.38,1029.97,2033.90,2678.81,2717.43,2946.51,349.65,353.96,14.44,0000 0000 0000 0000 000000
2014-12-10 10:23:26,0.12,2.18,0.00,21.40,26.30,29.53,4.80,26.39,1030.01,2033.84,2677.46,2716.42,2945.49,349.50,353.75,14.47,0000 0000 0000 0000 000000
2014-12-10 10:28:27,0.14,2.19,0.00,21.41,26.30,29.50,4.90,26.50,1030.09,2033.91,2676.36,2715.52,2944.47,350.15,354.38,14.50,0000 0000 0000 0000 000000
2014-12-10 10:33:29,0.13,2.19,0.00,21.42,26.30,29.55,4.93,26.66,1030.19,2033.83,2674.95,2714.49,2943.31,350.19,354.57,14.53,0000 0000 0000 0000 000000
2014-12-10 10:38:30,0.16,2.19,0.00,21.38,26.30,29.51,4.88,26.52,1030.14,2033.87,2673.53,2713.43,2942.28,349.45,353.81,14.56,0000 0000 0000 0000 000000
2014-12-10 10:43:31,0.12,2.20,0.00,21.42,26.30,29.53,4.82,26.49,1030.10,2033.86,2672.22,2712.43,2941.15,350.01,354.24,14.59,0000 0000 0000 0000 000000
2014-12-10 10:48:33,0.14,2.20,0.00,21.38,26.30,29.51,4.94,26.60,1030.11,2033.90,2670.93,2711.47,2940.20,349.93,354.17,14.62,0000 0000 0000 0000 000000
2014-12-10 10:53:34,0.15,2.21,0.00,21.36,26.29,29.52,4.98,26.58,1030.13,2033.92,2669.53,2710.53,2939.20,350.30,354.56,14.65,0000 0000 0000 0000 000000
2014-12-10 10:58:35,0.14,2.21,0.00,21.38,26.28,29.52,4.85,26.56,1030.07,2033.94,2668.09,2709.53,2938.03,349.94,354.47,14.68,0000 0000 0000 0000 000000
2014-12-10 11:03:36,0.19,2.22,0.00,21.42,26.27,29.49,5.00,26.60,1030.03,2033.94,2666.32,2708.20,2936.60,350.56,354.88,14.71,0000 0000 0000 0000 000000
2014-12-10 11:08:37,0.15,2.22,0.00,21.40,26.27,29.49,4.87,26.64,1029.94,2033.95,2664.72,2707.04,2935.47,349.36,353.51,14.74,0000 0000 0000 0000 000000
2014-12-10 11:13:39,0.21,2.23,0.00,21.37,26.27,29.53,4.97,26.75,1029.83,2033.97,2663.01,2705.76,2934.03,350.49,354.54,14.76,0000 0000 0000 0000 000000
2014-12-10 11:18:40,0.29,2.23,0.00,21.39,26.27,29.48,4.84,26.67,1029.82,2033.95,2660.43,2703.85,2931.95,349.97,354.17,14.79,0000 0000 0000 0000 000000
2014-12-10 11:23:41,0.30,2.24,0.00,21.38,26.27,29.49,4.81,26.59,1029.82,2033.96,2657.50,2701.83,2929.68,349.41,353.52,14.82,0000 0000 0000 0000 000000
2014-12-10 11:28:43,0.30,2.25,0.00,21.41,26.27,29.48,4.91,26.60,1029.81,2033.97,2654.61,2699.77,2927.45,349.52,353.63,14.85,0000 0000 0000 0000 000000
2014-12-10 11:33:43,0.30,2.26,0.00,21.40,26.27,29.49,5.02,26.74,1029.81,2033.96,2651.58,2697.70,2925.15,350.29,354.26,14.88,0000 0000 0000 0000 000000
2014-12-10 11:38:45,0.27,2.27,0.00,21.39,26.27,29.47,4.94,26.71,1029.80,2033.96,2648.89,2695.85,2923.14,350.16,354.20,14.91,0000 0000 0000 0000 000000
2014-12-10 11:43:46,0.27,2.28,0.00,21.39,26.26,29.50,4.91,26.71,1029.80,2033.98,2646.33,2693.99,2921.28,350.16,354.17,14.94,0000 0000 0000 0000 000000
2014-12-10 11:48:47,0.28,2.29,0.00,21.38,26.25,29.52,4.90,26.60,1029.80,2033.98,2643.81,2692.11,2919.16,350.11,354.29,14.97,0000 0000 0000 0000 000000
2014-12-10 11:53:48,0.39,2.29,0.00,21.39,26.25,29.47,4.90,26.75,1029.80,2033.97,2640.37,2689.62,2916.37,350.17,354.29,15.00,0000 0000 0000 0000 000000
2014-12-10 11:58:50,0.44,2.31,0.00,21.37,26.25,29.48,4.88,26.86,1029.80,2033.98,2636.08,2686.71,2913.20,350.04,354.13,15.03,0000 0000 0000 0000 000000
2014-12-10 12:03:51,0.44,2.32,0.00,21.38,26.25,29.47,4.98,26.87,1029.80,2033.98,2631.81,2683.77,2910.05,350.41,354.64,15.06,0000 0000 0000 0000 000000
2014-12-10 12:08:52,0.50,2.33,0.00,21.34,26.25,29.48,4.90,26.81,1029.80,2033.98,2627.19,2680.47,2906.43,349.95,354.07,15.09,0000 0000 0000 0000 000000
2014-12-10 12:13:54,0.64,2.35,0.00,21.38,26.25,29.50,4.96,26.66,1029.79,2033.99,2621.87,2676.33,2901.82,350.26,354.39,15.12,0000 0000 0000 0000 000000
2014-12-10 12:18:55,0.89,2.38,0.00,21.36,26.24,29.44,4.86,26.62,1029.78,2033.99,2614.31,2670.75,2895.67,349.85,353.94,15.15,0000 0000 0000 0000 000000
2014-12-10 12:23:56,0.79,2.40,0.00,21.37,26.24,29.46,4.84,26.57,1029.76,2033.98,2606.52,2665.28,2889.86,349.75,353.44,15.17,0000 0000 0000 0000 000000
2014-12-10 12:28:57,0.41,2.42,0.53,21.39,26.23,29.47,4.84,26.57,1029.75,2033.97,2601.63,2661.87,2886.32,349.97,354.26,15.20,0000 0000 0000 0000 000000
2014-12-10 12:33:58,0.34,2.43,1.00,21.39,26.23,29.48,4.96,26.51,1029.75,2033.98,2598.40,2659.57,2883.85,350.46,354.56,15.23,0000 0000 0000 0000 000000
2014-12-10 12:39:00,0.65,2.44,1.00,21.36,26.22,29.46,4.90,26.62,1029.70,2033.98,2593.35,2655.85,2879.87,350.12,354.25,15.26,0000 0000 0000 0000 000000
2014-12-10 12:44:01,0.80,2.46,1.00,21.38,26.22,29.49,4.86,26.51,1029.59,2033.97,2586.02,2650.53,2874.27,349.49,353.55,15.29,0000 0000 0000 0000 000000
2014-12-10 12:49:02,0.68,2.49,1.00,21.41,26.22,29.43,4.87,26.52,1029.52,2033.98,2579.40,2645.76,2869.07,349.86,353.86,15.32,0000 0000 0000 0000 000000
2014-12-10 12:54:03,0.64,2.51,1.00,21.42,26.22,29.43,4.90,26.50,1029.48,2033.97,2573.58,2641.57,2864.57,350.07,354.10,15.35,0000 0000 0000 0000 000000
2014-12-10 12:59:04,0.63,2.53,1.00,21.35,26.22,29.44,4.97,26.61,1029.60,2033.96,2567.65,2637.39,2860.13,350.34,354.41,15.38,0000 0000 0000 0000 000000